Hourly Weather Roundup
Issued by NWS Central Illinois

Home | Current Version | Previous Version | Text Only | Print | Product List | Glossary On
Versions: 1 2 3 4 5 6 7 8 9 10 11 12 13 14 15 16 17 18 19 20 21 22 23 24 25 26 27 28 29 30 31 32 33 34 35 36 37 38 39 40 41 42 43 44 45 46 47 48 49 50
000
NZUS43 KILX 260610
HWRILX

Area Weather Roundup
National Weather Service Lincoln IL
100 AM CDT WED JUL 26 2017

NOTE:  "FAIR" indicates few or no clouds below 12,000 feet, with
       no sigificant weather and/or obstructions to visibility.


CITY           SKY/WX    TMP DP  RH WIND       PRES   REMARKS
Bloomington    CLOUDY    68  61  78 SE10      30.13S
6HR MIN TEMP:  65; 6HR MAX TEMP:  78;

Champaign      CLEAR     64  61  90 E6        30.13F
6HR MIN TEMP:  64; 6HR MAX TEMP:  79;

Danville       PTCLDY    63  60  92 E3        30.11F
6HR MIN TEMP:  62; 6HR MAX TEMP:  76;

Decatur        PTCLDY    69  65  86 SE6       30.12F
6HR MIN TEMP:  67; 6HR MAX TEMP:  80;

Effingham      CLEAR     70  69  96 E5        30.13S
6HR MIN TEMP:  70; 6HR MAX TEMP:  82;

Flora          PTCLDY    74  69  83 E5        30.11S
6HR MIN TEMP:  74; 6HR MAX TEMP:  85;

Galesburg      CLOUDY    71  67  87 SE3       30.12R
6HR MIN TEMP:  71; 6HR MAX TEMP:  80;

Jacksonville   CLOUDY    71  68  89 SE7       30.09S
6HR MIN TEMP:  71; 6HR MAX TEMP:  83;

Lacon          CLOUDY    67  63  87 CALM      30.10R
6HR MIN TEMP:  67; 6HR MAX TEMP:  79;

Lawrenceville  PTCLDY    71  66  84 E6        30.12S
6HR MIN TEMP:  70; 6HR MAX TEMP:  82;

Litchfield     PTCLDY    73  68  85 SE7       30.10S
6HR MIN TEMP:  73; 6HR MAX TEMP:  83;

$$


CITY           SKY/WX    TMP DP  RH WIND       PRES   REMARKS
Lincoln        CLOUDY    69  67  94 SE3       30.10S
6HR MIN TEMP:  69; 6HR MAX TEMP:  83;

Macomb         PTCLDY    69  67  94 SE3       30.12R
6HR MIN TEMP:  69; 6HR MAX TEMP:  81;

Mattoon        CLEAR     68  65  90 SE7       30.11F
6HR MIN TEMP:  67; 6HR MAX TEMP:  80;

Mt Carmel AP   CLEAR     70  66  88 E5        30.11F
6HR MIN TEMP:  70; 6HR MAX TEMP:  81;

Olney-Noble AP MOCLDY    72  70  93 E3        30.12S
Paris AP       CLEAR     65  63  91 SE5       30.14F
6HR MIN TEMP:  63; 6HR MAX TEMP:  77;

Peoria         CLEAR     72  67  84 SE6       30.10S
6HR MIN TEMP:  72; 6HR MAX TEMP:  81;

Pontiac        CLOUDY    64  64  98 SE6       30.13S
6HR MIN TEMP:  64; 6HR MAX TEMP:  77;

Rantoul        PTCLDY    66  63  91 SE3       30.13F
6HR MIN TEMP:  66; 6HR MAX TEMP:  81;

Robinson       CLEAR     67  65  95 E3        30.14S
6HR MIN TEMP:  66; 6HR MAX TEMP:  80;

Springfield    CLOUDY    74  69  85 SE8       30.10F
6HR MIN TEMP:  73; 6HR MAX TEMP:  84;

Taylorville    CLOUDY    71  67  89 SE7       30.10F
6HR MIN TEMP:  71; 6HR MAX TEMP:  82;

$$

...REGIONAL REPORTS...


CITY           SKY/WX    TMP DP  RH WIND       PRES   REMARKS
Chicago O`Hare MOCLDY    70  58  65 S8        30.11S
Kankakee       CLOUDY    63  61  94 CALM      30.14S
Moline         CLOUDY    72  66  81 E3        30.10R
Mount Sterling PTCLDY    71  68  92 SE3       30.09R
Mount Vernon   CLEAR     74  69  85 E6        30.10F
Pittsfield     CLOUDY    73  70  91 E5        30.09S
Quincy         CLEAR     74  69  85 E8        30.09R
Rockford       CLOUDY    68  61  78 S7        30.12R
$$


CITY           SKY/WX    TMP DP  RH WIND       PRES   REMARKS
Burlington     MOCLDY    74  70  87 S6        30.08R
Cedar Rapids   NOT AVBL
Des Moines     CLOUDY    79  73  82 S5        30.03R HX  82
Kirksville     PTCLDY    74  70  87 SE6       30.09R
Ottumwa        CLOUDY    76  68  76 S6        30.06R
St Louis       PTCLDY    81  70  69 SE13      30.08F HX  84
$$


CITY           SKY/WX    TMP DP  RH WIND       PRES   REMARKS
Terre Haute    CLEAR     67  61  81 E3        30.14F
Evansville     CLEAR     74  68  81 NE3       30.11F
Indianapolis   CLEAR     67  61  81 SE9       30.16S
Lafayette      CLEAR     65  62  90 CALM      30.13F
Madison        CLOUDY    71  62  73 S7        30.09R
Milwaukee      CLOUDY    70  62  76 S6        30.11S
$$






USA.gov is the U.S. government's official web portal to all federal, state and local government web resources and services.